Location: Iesi
(43.5167°N, 13.2333°E)
Time: 01:19:07
(UTC+00:00)

Cosmos 1092 Rocket - Pass Details

Date: 08 August 2020
Orbit: 953 x 996 km, 82.9° (Epoch: 19 September)

Event Time Altitude Azimuth Distance (km) Brightness Sun altitude
Rises 23:43:33 0° 355° (N) 3,689 8.1 -30.3°
Reaches altitude 10° 23:46:10 10° 360° (N) 2,731 7.2 -30.2°
Maximum altitude 23:52:18 56° 78° (ENE) 1,138 4.3 -30.0°
Enters shadow 23:52:48 55° 97° (E) 1,155 4.3 -30.0°
